STARLINK-33674 (63329 NORAD) Tracking and Keplerian Element Data

This shows tracking and keplerian element data for the satellite.

Feedback or suggestion? Click here.




ElementValue
Catalog63329
NameSTARLINK-33674
Epoch Orbit4356
Epoch Day353.83305016
Epoch Year2025
RAAN121.9002
Inclination43.0015
Eccentricity0.0002702
Argument of Perigee272.3314
Mean Anonmoly87.7228
Mean Motion15.27597431
Decay Rate0.000228
L11 63329U 25057Y 25353.83305016 .00022800 00000+0 83500-3 0 9996
L22 63329 43.0015 121.9002 0002702 272.3314 87.7228 15.27597431 43562



Live tracking and technical data element details for STARLINK-33674 (NORAD 63329). STARLINK-33674 can be tracked NOW for your location showing map with azimuth and elevation plus other details from your city location.







IsCatalogInMostPopularTable: catalog: 63329, numindb: 2
Update: records affected: 1



GetName: 63329 STARLINK-33674

Hit Count: updated at: Sun, 08 Feb 2026 18:14:50 GMT